GLOBALSTAR M095 [+] (39077 NORAD) Tracking and Keplerian Element Data

This shows tracking and keplerian element data for the satellite.

Feedback or suggestion? Click here.




ElementValue
Catalog39077
NameGLOBALSTAR M095 [+]
Epoch Orbit26622
Epoch Day318.70781541
Epoch Year2018
RAAN81.9735
Inclination51.9804
Eccentricity2.49E-05
Argument of Perigee180.7634
Mean Anonmoly179.3232
Mean Motion12.6226087
Decay Rate-1.21E-06
L11 39077U 13005F 18318.70781541 -.00000121 00000-0 -94485-4 0 9999
L22 39077 51.9804 81.9735 0000249 180.7634 179.3232 12.62260870266221

Live tracking and technical data element details for GLOBALSTAR M095 [+] (NORAD 39077). GLOBALSTAR M095 [+] can be tracked NOW for your location showing map with azimuth and elevation plus other details from your city location.

Track the satellite on the map from your city or location and see movement details for azimuth, elevation, latitude, longitude, range, height, and movement on the map or in text.







IsCatalogInMostPopularTable: catalog: 39077, numindb: 114
Update: records affected: 1



GetName: 39077 GLOBALSTAR M095 [+]

Hit Count: updated at: Fri, 16 Nov 2018 05:05:08 GMT